Pagina principale
METAR-TAF:

METAR-TAF

Aeroporti :

Tarvisio, Italia

latitudine: 46-30N, longitudine: 013-35E, altezza: 777 m

Osservazione

Il bollettino è stato emesso 1 ora e 18 minuti fa, alle 14:55 UTC
Vento 1 kt da nord/nord-ovest
Temperature 13°C
Umidità 58%
Pressione 1018 hPa
Visibilità 10 km o più
nessuna nube inferiore a 1500 m e nessun cumulonembo

METAR: LIVO 231455Z 33001KT CAVOK 13/05 Q1018 RMK BKN SCT080 SCT200 VIS MIN 9999

Ora: 18:13 (16:13 UTC)


TAF: mancante

Osservazioni e previsioni meteorologiche di più di 4000 aeroporti (messaggi METAR e TAF).

Le stazioni disponibili sono rappresentate dai dischi gialli e rossi sulla carta.

Puntare il mouse per vedere il nome della stazione.

Clicca sopra per visualizzare le osservazioni e previsioni meteorologiche.

Per cambiare la mappa : fare clic sui pulsanti verdi con una croce nera per ingrandire, il pulsante verde con un trattino per diminuire, o sulla freccia verde per le mappe adiacenti.


METAR-TAF: